Port Lavaca, TX

8:12 AM CDT on March 28, 2017 (GMT -0500)
Port Lavaca

Weather History for KPKV - May, 2014

Change the Weather History Date:

Thursday, May 15, 2014

  Actual Average (KVCT) Record (KVCT)
Temperature  
Mean Temperature 64 °F -  
Max Temperature 78 °F 84 °F 95 °F (1940)
Min Temperature 49 °F 66 °F 49 °F (2014)
Degree Days  
Heating Degree Days 2    
Growing Degree Days 14 (Base 50)    
Moisture  
Dew Point 51 °F    
Average Humidity 64    
Maximum Humidity 91    
Minimum Humidity 33    
Precipitation  
Precipitation 0.00 in - - ()
Sea Level Pressure  
Sea Level Pressure 30.25 in    
Wind  
Wind Speed 3 mph (South)    
Max Wind Speed 15 mph    
Max Gust Speed 17 mph    
Visibility 10 miles    
Events      
Averages and records for this station are not official NWS values.
T = Trace of Precipitation, MM = Missing Value Source: NWS Daily Summary

Daily Weather History Graph

Daily Weather History Graph

Search for Another Location

Airport or City:

Trip Planner

Search our weather history database for the weather conditions in past years. The results will help you decide how hot, cold, wet, or windy it might be!

Date:

Astronomy

May. 15, 2014 Rise Set
Actual Time 6:35 AM CDT 8:10 PM CDT
Civil Twilight 6:10 AM CDT 8:36 PM CDT
Nautical Twilight 5:39 AM CDT 9:07 PM CDT
Astronomical Twilight 5:07 AM CDT 9:39 PM CDT
Moon 9:19 PM CDT (5/15) 7:22 AM CDT (5/15)
Length of Visible Light 14h 26m
Length of Day
13h 34m
Full, 99% of the Moon is Illuminated
May 15
Full
May 21
Last Quarter
May 28
New
Jun 5
First Quarter
Jun 12
Full

Hourly Weather History & Observations

Time (CDT) Temp. Dew Point Humidity Pressure Visibility Wind Dir Wind Speed Gust Speed Precip Events Conditions
12:10 AM 57.7 °F 50.0 °F 75% 30.26 in 10.0 mi Calm Calm - N/A   Clear
2:15 AM 56.5 °F 49.3 °F 77% 30.27 in 10.0 mi Calm Calm - N/A   Clear
2:35 AM 56.3 °F 49.6 °F 78% 30.27 in 10.0 mi Calm Calm - N/A   Clear
2:55 AM 55.9 °F 49.3 °F 78% 30.26 in 10.0 mi East 3.5 mph - N/A   Clear
3:15 AM 56.3 °F 49.1 °F 77% 30.26 in 10.0 mi Calm Calm - N/A   Clear
3:35 AM 56.5 °F 48.6 °F 75% 30.26 in 10.0 mi Calm Calm - N/A   Clear
3:55 AM 56.3 °F 48.4 °F 75% 30.26 in 10.0 mi Calm Calm - N/A   Clear
4:15 AM 54.5 °F 47.8 °F 78% 30.25 in 10.0 mi Calm Calm - N/A   Clear
4:35 AM 53.2 °F 48.2 °F 83% 30.25 in 10.0 mi Calm Calm - N/A   Clear
4:55 AM 54.5 °F 48.2 °F 79% 30.26 in 10.0 mi Calm Calm - N/A   Clear
5:15 AM 52.5 °F 47.8 °F 84% 30.26 in 10.0 mi Calm Calm - N/A   Clear
5:40 AM 51.4 °F 47.5 °F 86% 30.27 in 10.0 mi North 4.6 mph - N/A   Clear
5:55 AM 51.1 °F 47.3 °F 87% 30.27 in 10.0 mi North 4.6 mph - N/A   Clear
6:15 AM 51.1 °F 47.3 °F 87% 30.28 in 10.0 mi North 4.6 mph - N/A   Clear
6:35 AM 51.1 °F 46.8 °F 85% 30.28 in 10.0 mi NNW 4.6 mph - N/A   Clear
6:55 AM 50.0 °F 46.4 °F 87% 30.29 in 10.0 mi NNW 3.5 mph - N/A   Clear
7:15 AM 49.6 °F 47.1 °F 91% 30.29 in 10.0 mi Calm Calm - N/A   Clear
7:35 AM 51.6 °F 48.9 °F 90% 30.30 in 10.0 mi Calm Calm - N/A   Clear
7:55 AM 54.5 °F 50.0 °F 85% 30.30 in 10.0 mi Calm Calm - N/A   Clear
8:15 AM 57.0 °F 52.2 °F 84% 30.31 in 10.0 mi Calm Calm - N/A   Clear
8:35 AM 59.5 °F 53.2 °F 80% 30.31 in 10.0 mi Calm Calm - N/A   Clear
8:55 AM 62.6 °F 55.0 °F 76% 30.32 in 10.0 mi Calm Calm - N/A   Clear
9:10 AM 64.0 °F 54.1 °F 70% 30.32 in 10.0 mi Calm Calm - N/A   Clear
10:00 AM 68.7 °F 49.3 °F 50% 30.32 in 10.0 mi Calm Calm - N/A   Clear
10:15 AM 69.4 °F 47.8 °F 46% 30.32 in 10.0 mi Calm Calm - N/A   Clear
10:35 AM 70.3 °F 47.8 °F 45% 30.32 in 10.0 mi South 4.6 mph - N/A   Clear
10:55 AM 71.4 °F 46.8 °F 41% 30.32 in 10.0 mi South 3.5 mph - N/A   Clear
11:15 AM 73.0 °F 47.5 °F 40% 30.32 in 10.0 mi South 4.6 mph - N/A   Clear
11:35 AM 72.3 °F 45.9 °F 39% 30.32 in 10.0 mi SSW 3.5 mph - N/A   Clear
11:55 AM 73.2 °F 46.2 °F 38% 30.32 in 10.0 mi SW 4.6 mph - N/A   Clear
12:35 PM 74.5 °F 45.3 °F 35% 30.31 in 10.0 mi SSW 5.8 mph - N/A   Clear
12:55 PM 76.1 °F 47.1 °F 36% 30.30 in 10.0 mi SSW 8.1 mph - N/A   Clear
1:15 PM 76.3 °F 45.5 °F 33% 30.29 in 10.0 mi West 3.5 mph - N/A   Clear
2:15 PM 77.2 °F 53.4 °F 44% 30.25 in 10.0 mi East 10.4 mph 16.1 mph N/A   Clear
2:55 PM 77.2 °F 52.9 °F 43% 30.24 in 10.0 mi East 9.2 mph - N/A   Clear
3:15 PM 77.2 °F 51.6 °F 41% 30.24 in 10.0 mi East 10.4 mph - N/A   Clear
3:40 PM 77.7 °F 51.6 °F 40% 30.22 in 10.0 mi ESE 8.1 mph - N/A   Clear
3:55 PM 76.5 °F 51.3 °F 41% 30.21 in 10.0 mi ESE 9.2 mph - N/A   Clear
4:15 PM 77.7 °F 50.2 °F 38% 30.20 in 10.0 mi ESE 10.4 mph - N/A   Clear
4:35 PM 78.1 °F 51.1 °F 39% 30.20 in 10.0 mi South 5.8 mph 16.1 mph N/A   Scattered Clouds
4:55 PM 77.7 °F 51.8 °F 40% 30.19 in 10.0 mi SSW 12.7 mph - N/A   Scattered Clouds
5:15 PM 77.0 °F 53.2 °F 44% 30.19 in 10.0 mi South 13.8 mph - N/A   Clear
5:35 PM 76.1 °F 53.1 °F 45% 30.19 in 10.0 mi SSW 15.0 mph - N/A   Clear
5:55 PM 75.4 °F 52.5 °F 45% 30.18 in 10.0 mi South 13.8 mph - N/A   Clear
6:15 PM 74.5 °F 52.2 °F 46% 30.19 in 10.0 mi South 12.7 mph - N/A   Clear
6:35 PM 73.6 °F 51.6 °F 46% 30.18 in 10.0 mi South 11.5 mph - N/A   Clear
6:55 PM 72.9 °F 52.5 °F 49% 30.18 in 10.0 mi South 12.7 mph 17.3 mph N/A   Clear
7:15 PM 71.8 °F 53.4 °F 52% 30.18 in 10.0 mi South 9.2 mph - N/A   Clear
7:35 PM 70.7 °F 53.4 °F 54% 30.18 in 10.0 mi South 6.9 mph - N/A   Clear
7:55 PM 69.1 °F 53.4 °F 57% 30.19 in 10.0 mi South 8.1 mph - N/A   Clear
8:15 PM 67.3 °F 54.3 °F 63% 30.19 in 10.0 mi South 8.1 mph - N/A   Clear
8:35 PM 66.0 °F 54.5 °F 66% 30.19 in 10.0 mi South 6.9 mph - N/A   Clear
8:55 PM 64.6 °F 54.7 °F 70% 30.20 in 10.0 mi South 6.9 mph - N/A   Clear
9:15 PM 63.7 °F 55.0 °F 73% 30.20 in 10.0 mi South 6.9 mph - N/A   Clear
9:35 PM 63.0 °F 55.2 °F 76% 30.21 in 10.0 mi South 6.9 mph - N/A   Clear
9:55 PM 62.8 °F 55.4 °F 77% 30.21 in 10.0 mi South 5.8 mph - N/A   Clear
10:15 PM 62.1 °F 55.6 °F 79% 30.21 in 10.0 mi South 6.9 mph - N/A   Clear
10:35 PM 61.7 °F 55.6 °F 80% 30.21 in 10.0 mi South 5.8 mph - N/A   Clear
10:55 PM 61.9 °F 55.6 °F 80% 30.21 in 10.0 mi South 6.9 mph - N/A   Clear
11:15 PM 61.9 °F 55.8 °F 80% 30.21 in 10.0 mi South 8.1 mph - N/A   Clear
11:35 PM 61.5 °F 55.8 °F 81% 30.21 in 10.0 mi South 6.9 mph - N/A   Clear
11:55 PM 61.2 °F 56.3 °F 84% 30.21 in 10.0 mi South 8.1 mph - N/A   Clear